| time (UTC) | temp C | wind direction | speed KPH | gust KPH | rain 1hr cm | rain 24hr cm | rain mn cm | humidity % | barometer mb |
| 20260506201541 | 18 | 198 | 6.4 | 25.7 | 0.00 | 0.20 | 0.20 | 84 | 1005.0 |
| 20260506201505 | 19 | 207 | 11.3 | 25.7 | 0.00 | 0.20 | 0.20 | 83 | 1005.9 |
| 20260506200510 | 18 | 212 | 8.0 | 19.3 | 0.00 | 0.20 | 0.20 | 85 | 1006.2 |
| 20260506194519 | 18 | 161 | 6.4 | 17.7 | 0.00 | 0.20 | 0.20 | 85 | 1005.5 |
| 20260506193119 | 18 | 171 | 6.4 | 19.3 | 0.00 | 0.20 | 0.20 | 86 | 1005.7 |
| 20260506192506 | 18 | 220 | 8.0 | 19.3 | 0.00 | 0.20 | 0.20 | 86 | 1006.7 |
| 20260506191552 | 17 | 204 | 3.2 | 22.5 | 0.00 | 0.20 | 0.20 | 86 | 1005.9 |
| 20260506190025 | 17 | 213 | 11.3 | 25.7 | 0.00 | 0.20 | 0.20 | 87 | 1006.9 |
| 20260506190009 | 17 | 206 | 4.8 | 25.7 | 0.00 | 0.20 | 0.20 | 87 | 1006.0 |
| 20260506184511 | 17 | 177 | 9.7 | 32.2 | 0.00 | 0.20 | 0.20 | 86 | 1006.1 |
| 20260506183006 | 18 | 180 | 12.9 | 24.1 | 0.03 | 0.20 | 0.20 | 86 | 1006.9 |
| 20260506181521 | 17 | 214 | 8.0 | 24.1 | 0.03 | 0.20 | 0.20 | 87 | 1006.0 |
| 20260506181007 | 17 | 198 | 9.7 | 25.7 | 0.03 | 0.20 | 0.20 | 87 | 1007.1 |
| 20260506180006 | 17 | 234 | 9.7 | 19.3 | 0.03 | 0.20 | 0.20 | 88 | 1006.3 |
| 20260506175503 | 17 | 197 | 6.4 | 19.3 | 0.03 | 0.20 | 0.20 | 88 | 1007.3 |
| 20260506175003 | 17 | 168 | 6.4 | 19.3 | 0.03 | 0.20 | 0.20 | 88 | 1007.3 |
| 20260506174534 | 17 | 175 | 4.8 | 19.3 | 0.03 | 0.20 | 0.20 | 88 | 1006.4 |
| 20260506173030 | 18 | 186 | 6.4 | 16.1 | 0.00 | 0.18 | 0.18 | 88 | 1007.3 |
| 20260506173021 | 18 | 206 | 8.0 | 24.1 | 0.00 | 0.18 | 0.18 | 88 | 1006.5 |
| 20260506172004 | 18 | 175 | 9.7 | 25.7 | 0.03 | 0.18 | 0.18 | 89 | 1007.4 |
| 20260506171535 | 18 | 148 | 6.4 | 22.5 | 0.05 | 0.18 | 0.18 | 89 | 1006.3 |
| 20260506170503 | 18 | 175 | 6.4 | 16.1 | 0.05 | 0.18 | 0.18 | 90 | 1007.1 |
| 20260506170115 | 17 | 175 | 4.8 | 14.5 | 0.08 | 0.18 | 0.18 | 90 | 1006.3 |
| 20260506170025 | 18 | 178 | 6.4 | 17.7 | 0.08 | 0.18 | 0.18 | 91 | 1007.3 |
| 20260506165504 | 17 | 193 | 6.4 | 17.7 | 0.10 | 0.18 | 0.18 | 91 | 1007.4 |
| 20260506165005 | 17 | 175 | 6.4 | 16.1 | 0.10 | 0.18 | 0.18 | 91 | 1007.4 |
| 20260506164004 | 17 | 157 | 8.0 | 14.5 | 0.10 | 0.18 | 0.18 | 90 | 1007.4 |
| 20260506163503 | 17 | 162 | 8.0 | 19.3 | 0.13 | 0.18 | 0.18 | 89 | 1007.7 |
| 20260506162004 | 17 | 178 | 9.7 | 20.9 | 0.13 | 0.15 | 0.15 | 89 | 1008.4 |
| 20260506161523 | 17 | 226 | 9.7 | 16.1 | 0.13 | 0.13 | 0.13 | 88 | 1007.6 |
| 20260506160505 | 17 | 191 | 8.0 | 20.9 | 0.13 | 0.13 | 0.13 | 87 | 1008.8 |
| 20260506154657 | 17 | 134 | 6.4 | 16.1 | 0.08 | 0.08 | 0.08 | 84 | 1008.0 |
| 20260506153037 | 18 | 198 | 12.9 | 24.1 | 0.03 | 0.03 | 0.03 | 79 | 1007.8 |
| 20260506151607 | 18 | 164 | 6.4 | 19.3 | 0.00 | 0.00 | 0.00 | 78 | 1007.6 |
| 20260506151504 | 19 | 199 | 8.0 | 12.9 | 0.00 | 0.00 | 0.00 | 78 | 1008.6 |
| 20260506150013 | 19 | 177 | 9.7 | 29.0 | 0.00 | 0.00 | 0.00 | 76 | 1007.8 |
| 20260506150004 | 19 | 193 | 11.3 | 29.0 | 0.00 | 0.00 | 0.00 | 76 | 1008.8 |
| 20260506144545 | 20 | 175 | 9.7 | 30.6 | 0.00 | 0.00 | 0.00 | 73 | 1007.8 |
| 20260506140025 | 20 | 191 | 11.3 | 25.7 | 0.00 | 0.00 | 0.00 | 73 | 1008.5 |
| 20260506134532 | 20 | 204 | 12.9 | 33.8 | 0.00 | 0.00 | 0.00 | 73 | 1007.7 |
| 20260506133156 | 20 | 213 | 14.5 | 37.0 | 0.00 | 0.00 | 0.00 | 73 | 1007.7 |
| 20260506133003 | 20 | 168 | 14.5 | 27.4 | 0.00 | 0.00 | 0.00 | 73 | 1008.7 |
| 20260506131538 | 20 | 153 | 12.9 | 30.6 | 0.00 | 0.00 | 0.00 | 74 | 1008.0 |
| 20260506131511 | 20 | 196 | 9.7 | 29.0 | 0.00 | 0.00 | 0.00 | 74 | 1008.9 |
| 20260506130027 | 19 | 149 | 11.3 | 30.6 | 0.00 | 0.00 | 0.00 | 74 | 1007.9 |
| 20260506130025 | 20 | 173 | 14.5 | 30.6 | 0.00 | 0.00 | 0.00 | 74 | 1008.9 |
| 20260506125004 | 19 | 196 | 12.9 | 29.0 | 0.00 | 0.00 | 0.00 | 75 | 1008.9 |
| 20260506124516 | 19 | 178 | 9.7 | 29.0 | 0.00 | 0.00 | 0.00 | 75 | 1008.0 |
| 20260506124504 | 19 | 193 | 11.3 | 29.0 | 0.00 | 0.00 | 0.00 | 74 | 1008.9 |
| 20260506123031 | 18 | 248 | 9.7 | 32.2 | 0.00 | 0.00 | 0.00 | 75 | 1007.8 |
| 20260506122504 | 18 | 185 | 14.5 | 43.5 | 0.00 | 0.00 | 0.00 | 75 | 1008.7 |
| 20260506121508 | 18 | 147 | 9.7 | 25.7 | 0.00 | 0.00 | 0.00 | 76 | 1007.8 |
| 20260506120004 | 18 | 181 | 9.7 | 19.3 | 0.00 | 0.00 | 0.00 | 77 | 1008.8 |
| 20260506114613 | 18 | 134 | 8.0 | 30.6 | 0.00 | 0.00 | 0.00 | 77 | 1007.8 |
| 20260506113533 | 18 | 175 | 9.7 | 24.1 | 0.00 | 0.00 | 0.00 | 77 | 1008.9 |
| 20260506113030 | 18 | 180 | 8.0 | 17.7 | 0.00 | 0.00 | 0.00 | 77 | 1007.9 |
| 20260506111648 | 18 | 134 | 11.3 | 25.7 | 0.00 | 0.00 | 0.00 | 78 | 1007.9 |
| 20260506110018 | 18 | 190 | 8.0 | 24.1 | 0.00 | 0.00 | 0.00 | 79 | 1007.8 |
| 20260506105003 | 18 | 176 | 11.3 | 27.4 | 0.00 | 0.00 | 0.00 | 79 | 1008.7 |
| 20260506104531 | 18 | 198 | 12.9 | 27.4 | 0.00 | 0.00 | 0.00 | 80 | 1007.7 |
| 20260506101620 | 17 | 165 | 11.3 | 22.5 | 0.00 | 0.00 | 0.00 | 80 | 1007.6 |
| 20260506100136 | 17 | 154 | 14.5 | 27.4 | 0.00 | 0.00 | 0.00 | 80 | 1007.7 |
| 20260506094551 | 18 | 188 | 9.7 | 22.5 | 0.00 | 0.00 | 0.00 | 79 | 1008.4 |
| 20260506093120 | 18 | 211 | 11.3 | 24.1 | 0.00 | 0.00 | 0.00 | 79 | 1007.6 |
| 20260506092503 | 18 | 183 | 12.9 | 29.0 | 0.00 | 0.00 | 0.00 | 79 | 1008.5 |
| 20260506090126 | 18 | 161 | 14.5 | 25.7 | 0.00 | 0.00 | 0.00 | 79 | 1007.7 |
| 20260506084541 | 18 | 141 | 12.9 | 27.4 | 0.00 | 0.00 | 0.00 | 79 | 1007.8 |
| 20260506084504 | 18 | 191 | 11.3 | 24.1 | 0.00 | 0.00 | 0.00 | 79 | 1008.7 |
| 20260506083004 | 18 | 160 | 9.7 | 25.7 | 0.00 | 0.00 | 0.00 | 79 | 1008.7 |
| 20260506081545 | 18 | 158 | 9.7 | 22.5 | 0.00 | 0.00 | 0.00 | 79 | 1007.8 |
| 20260506080504 | 18 | 161 | 11.3 | 29.0 | 0.00 | 0.00 | 0.00 | 79 | 1008.9 |
| 20260506080113 | 18 | 167 | 14.5 | 29.0 | 0.00 | 0.00 | 0.00 | 79 | 1007.8 |
| 20260506073046 | 18 | 200 | 8.0 | 17.7 | 0.00 | 0.00 | 0.00 | 78 | 1007.9 |
| 20260506073003 | 18 | 161 | 9.7 | 19.3 | 0.00 | 0.00 | 0.00 | 77 | 1008.8 |
| 20260506060504 | 20 | 178 | 9.7 | 24.1 | 0.00 | 0.00 | 0.00 | 73 | 1009.2 |
| 20260506060142 | 20 | 234 | 6.4 | 17.7 | 0.00 | 0.00 | 0.00 | 73 | 1008.3 |
| 20260506043012 | 20 | 184 | 8.0 | 25.7 | 0.00 | 0.00 | 0.00 | 68 | 1008.7 |
| 20260506043004 | 20 | 163 | 11.3 | 25.7 | 0.00 | 0.00 | 0.00 | 68 | 1009.7 |
| 20260506041550 | 20 | 178 | 11.3 | 30.6 | 0.00 | 0.00 | 0.00 | 67 | 1008.7 |
| 20260506040023 | 20 | 183 | 12.9 | 25.7 | 0.00 | 0.00 | 0.00 | 66 | 1008.6 |
| 20260506034601 | 20 | 192 | 9.7 | 27.4 | 0.00 | 0.00 | 0.00 | 66 | 1008.6 |
| 20260506033005 | 21 | 195 | 11.3 | 27.4 | 0.00 | 0.00 | 0.00 | 65 | 1008.5 |
| 20260506032003 | 21 | 172 | 11.3 | 27.4 | 0.00 | 0.00 | 0.00 | 64 | 1009.4 |
| 20260506031549 | 21 | 149 | 8.0 | 27.4 | 0.00 | 0.00 | 0.00 | 64 | 1008.5 |
| 20260506030114 | 21 | 208 | 8.0 | 29.0 | 0.00 | 0.00 | 0.00 | 64 | 1008.6 |
| 20260506030004 | 21 | 166 | 11.3 | 27.4 | 0.00 | 0.00 | 0.00 | 63 | 1009.6 |
| 20260506024547 | 21 | 177 | 6.4 | 24.1 | 0.00 | 0.00 | 0.00 | 64 | 1008.7 |
| 20260506023115 | 21 | 206 | 9.7 | 17.7 | 0.00 | 0.00 | 0.00 | 63 | 1008.7 |
| 20260506021514 | 21 | 173 | 8.0 | 17.7 | 0.00 | 0.00 | 0.00 | 62 | 1008.7 |
| 20260506020524 | 21 | 160 | 9.7 | 25.7 | 0.00 | 0.00 | 0.00 | 62 | 1009.6 |
| 20260506020023 | 21 | 193 | 9.7 | 19.3 | 0.00 | 0.00 | 0.00 | 62 | 1008.7 |
| 20260506020004 | 21 | 166 | 11.3 | 19.3 | 0.00 | 0.00 | 0.00 | 62 | 1009.6 |
| 20260506014529 | 22 | 175 | 9.7 | 24.1 | 0.00 | 0.00 | 0.00 | 61 | 1009.5 |
| 20260506013101 | 22 | 184 | 9.7 | 24.1 | 0.00 | 0.00 | 0.00 | 60 | 1008.5 |
| 20260506011544 | 22 | 143 | 8.0 | 17.7 | 0.00 | 0.00 | 0.00 | 55 | 1008.4 |
| 20260506011504 | 23 | 168 | 8.0 | 19.3 | 0.00 | 0.00 | 0.00 | 55 | 1009.3 |
| 20260506010504 | 23 | 152 | 8.0 | 20.9 | 0.00 | 0.00 | 0.00 | 53 | 1009.0 |
| 20260506010020 | 23 | 192 | 6.4 | 24.1 | 0.00 | 0.00 | 0.00 | 52 | 1008.2 |
| 20260506004601 | 23 | 211 | 8.0 | 16.1 | 0.00 | 0.00 | 0.00 | 49 | 1007.9 |
| 20260506004503 | 24 | 178 | 9.7 | 20.9 | 0.00 | 0.00 | 0.00 | 49 | 1008.8 |
| 20260506003015 | 24 | 150 | 6.4 | 17.7 | 0.00 | 0.00 | 0.00 | 46 | 1007.8 |
| 20260506003007 | 24 | 175 | 9.7 | 24.1 | 0.00 | 0.00 | 0.00 | 46 | 1008.7 |
| 20260506002003 | 25 | 173 | 11.3 | 22.5 | 0.00 | 0.00 | 0.00 | 46 | 1008.5 |
| 20260506001620 | 24 | 173 | 11.3 | 25.7 | 0.00 | 0.00 | 0.00 | 46 | 1007.6 |
| 20260506000157 | 25 | 171 | 6.4 | 14.5 | 0.00 | 0.00 | 0.00 | 45 | 1007.5 |
| 20260505234546 | 25 | 190 | 11.3 | 22.5 | 0.00 | 0.00 | 0.00 | 45 | 1007.4 |
| 20260505234532 | 25 | 196 | 11.3 | 22.5 | 0.00 | 0.00 | 0.00 | 44 | 1008.3 |
| 20260505233504 | 25 | 189 | 12.9 | 27.4 | 0.00 | 0.00 | 0.00 | 45 | 1008.3 |
| 20260505233035 | 25 | 175 | 12.9 | 24.1 | 0.00 | 0.00 | 0.00 | 44 | 1007.3 |
| 20260505233006 | 25 | 183 | 11.3 | 14.5 | 0.00 | 0.00 | 0.00 | 44 | 1008.2 |
| 20260505232535 | 25 | 172 | 12.9 | 33.8 | 0.00 | 0.00 | 0.00 | 45 | 1008.1 |
| 20260505231527 | 25 | 196 | 16.1 | 33.8 | 0.00 | 0.00 | 0.00 | 44 | 1007.1 |
| 20260505231003 | 26 | 192 | 16.1 | 33.8 | 0.00 | 0.00 | 0.00 | 44 | 1008.1 |
| 20260505230524 | 26 | 180 | 16.1 | 33.8 | 0.00 | 0.00 | 0.00 | 43 | 1008.1 |
| 20260505230046 | 26 | 154 | 16.1 | 29.0 | 0.00 | 0.00 | 0.00 | 42 | 1007.0 |
| 20260505224630 | 26 | 211 | 17.7 | 35.4 | 0.00 | 0.00 | 0.00 | 39 | 1006.9 |
| 20260505223101 | 26 | 196 | 19.3 | 45.1 | 0.00 | 0.00 | 0.00 | 37 | 1006.7 |
| 20260505221510 | 27 | 182 | 16.1 | 38.6 | 0.00 | 0.00 | 0.00 | 37 | 1007.7 |
| 20260505221028 | 27 | 187 | 17.7 | 35.4 | 0.00 | 0.00 | 0.00 | 37 | 1007.7 |
| 20260505220031 | 26 | 229 | 17.7 | 35.4 | 0.00 | 0.00 | 0.00 | 36 | 1006.8 |
| 20260505213106 | 27 | 184 | 16.1 | 51.5 | 0.00 | 0.00 | 0.00 | 34 | 1006.4 |
| 20260505211604 | 27 | 266 | 17.7 | 48.3 | 0.00 | 0.00 | 0.00 | 33 | 1006.5 |
| 20260505210015 | 27 | 180 | 12.9 | 46.7 | 0.00 | 0.00 | 0.00 | 32 | 1006.5 |
| 20260505204530 | 27 | 166 | 20.9 | 40.2 | 0.00 | 0.00 | 0.00 | 32 | 1006.3 |
| 20260505203107 | 28 | 256 | 16.1 | 35.4 | 0.00 | 0.00 | 0.00 | 34 | 1006.4 |
| 20260505202504 | 28 | 188 | 11.3 | 19.3 | 0.00 | 0.00 | 0.00 | 34 | 1007.2 |